sat.trackr.live / text

‹ back to catalog

TIANQI-27

NORAD 59911 · 2024-102C

PAYLOAD ACTIVE UNKNOWN

§ Identity

Operator
Country
PRC
Launch date
2024-05-29
Launch site
YSLA
Launch vehicle
Mass (kg)
RCS (m²)

External: N2YO · Heavens-Above · Gunter

§ Orbital elements

Epoch: 2026-05-25T02:56:21.374304Z

Period
102.92 min
Inclination
44.9796°
Eccentricity
0.0006491
Mean motion
13.99143612 rev/d
Perigee alt
892.0 km
Apogee alt
901.5 km
Semi-major
7,274.9 km
B*
1.5209e-4
RAAN
4.0718°
Arg perigee
142.2182°
Mean anomaly
217.9107°
Rev number
10,167

§ Raw data

TIANQI-271 59911U 24102C   26145.12246961  .00000093  00000+0  15209-3 0  99942 59911  44.9796   4.0718 0006491 142.2182 217.9107 13.99143612101677

JSON: /api/v1/satellites/59911 · /tle

For live sub-satellite position, see the globe view (requires WebGL).

§ Visibility from observer

Set your observer location to see the next 7 days of passes ≥ 10°. The values pass through the URL so the page stays shareable.

No JS? Fill the form by hand. The geolocation button needs JavaScript.